St. Thomas, VI

5:01 PM AST on May 23, 2017 (GMT -0400)
King

Weather History for TIST - April, 2012

Change the Weather History Date:

Tuesday, April 10, 2012

  Actual Average Record
Temperature  
Mean Temperature 79 °F 80 °F  
Max Temperature 83 °F 87 °F 94 °F (1995)
Min Temperature 74 °F 74 °F 62 °F (1982)
Degree Days  
Heating Degree Days 0 0  
Month to date heating degree days 0 0  
Since 1 July heating degree days 0 0  
Cooling Degree Days 14 15  
Month to date cooling degree days 134 150  
Year to date cooling degree days 1227 1409  
Growing Degree Days 28 (Base 50)    
Moisture  
Dew Point 72 °F    
Average Humidity 78    
Maximum Humidity 87    
Minimum Humidity 69    
Precipitation  
Precipitation T in 0.09 in 0.87 in (1975)
Month to date precipitation 1.28 0.73  
Year to date precipitation 8.22 5.96  
Snow  
Snow 0.00 in 0.00 in - ()
Month to date snowfall 0.0 0.0  
Since 1 July snowfall 0.0 0.0  
Snow Depth 0.00 in    
Sea Level Pressure  
Sea Level Pressure 29.95 in    
Wind  
Wind Speed 10 mph (ENE)    
Max Wind Speed 15 mph    
Max Gust Speed 22 mph    
Visibility 10 miles    
Events      
T = Trace of Precipitation, MM = Missing Value Source: NWS Daily Summary

Daily Weather History Graph

Daily Weather History Graph

Search for Another Location

Airport or City:

Trip Planner

Search our weather history database for the weather conditions in past years. The results will help you decide how hot, cold, wet, or windy it might be!

Date:

Astronomy

Apr. 10, 2012 Rise Set
Actual Time 6:06 AM AST 6:35 PM AST
Civil Twilight 5:44 AM AST 6:57 PM AST
Nautical Twilight 5:18 AM AST 7:23 PM AST
Astronomical Twilight 4:52 AM AST 7:49 PM AST
Moon 10:55 PM AST (4/10) 9:20 AM AST (4/10)
Length of Visible Light 13h 13m
Length of Day
12h 29m
Waning Gibbous, 79% of the Moon is Illuminated
Apr 10
Waning Gibbous
Apr 13
Last Quarter
Apr 21
New
Apr 29
First Quarter
May 5
Full

Hourly Weather History & Observations

Time (AST) Temp. Heat Index Dew Point Humidity Pressure Visibility Wind Dir Wind Speed Gust Speed Precip Events Conditions
12:53 AM 75.9 °F - 72.0 °F 87% 29.93 in 10.0 mi ENE 8.1 mph - N/A   Scattered Clouds
1:53 AM 75.9 °F - 71.1 °F 85% 29.92 in 10.0 mi ENE 5.8 mph - N/A   Clear
2:53 AM 75.0 °F - 71.1 °F 87% 29.91 in 10.0 mi NE 5.8 mph - N/A   Clear
3:53 AM 75.0 °F - 72.0 °F 90% 29.91 in 10.0 mi NE 8.1 mph - N/A   Scattered Clouds
4:53 AM 75.0 °F - 69.1 °F 82% 29.91 in 10.0 mi ENE 8.1 mph - N/A   Clear
5:53 AM 75.0 °F - 71.1 °F 87% 29.93 in 10.0 mi ENE 8.1 mph - N/A   Clear
6:53 AM 75.9 °F - 72.0 °F 87% 29.95 in 10.0 mi NE 8.1 mph - N/A   Partly Cloudy
7:53 AM 80.1 °F 83.8 °F 72.0 °F 76% 29.96 in 10.0 mi NE 8.1 mph - N/A   Scattered Clouds
8:53 AM 81.0 °F 85.2 °F 72.0 °F 74% 29.98 in 10.0 mi ENE 13.8 mph 21.9 mph 0.00 in   Mostly Cloudy
9:53 AM 81.0 °F 84.9 °F 71.1 °F 72% 29.99 in 10.0 mi East 12.7 mph - N/A   Partly Cloudy
10:53 AM 82.0 °F 86.7 °F 72.0 °F 71% 29.99 in 10.0 mi East 13.8 mph - N/A   Partly Cloudy
11:53 AM 82.0 °F 86.3 °F 71.1 °F 69% 29.98 in 10.0 mi East 15.0 mph - N/A   Clear
12:53 PM 82.9 °F 88.0 °F 72.0 °F 69% 29.96 in 10.0 mi East 11.5 mph - N/A   Clear
1:53 PM 82.9 °F 88.8 °F 73.0 °F 72% 29.94 in 10.0 mi East 12.7 mph - N/A   Clear
2:53 PM 82.9 °F 87.5 °F 71.1 °F 67% 29.94 in 10.0 mi East 11.5 mph - N/A   Clear
3:53 PM 82.0 °F 86.7 °F 72.0 °F 71% 29.94 in 10.0 mi East 10.4 mph - N/A   Clear
4:53 PM 81.0 °F 85.2 °F 72.0 °F 74% 29.94 in 10.0 mi East 13.8 mph - N/A   Clear
5:53 PM 80.1 °F 83.8 °F 72.0 °F 76% 29.95 in 10.0 mi East 10.4 mph - N/A   Partly Cloudy
6:53 PM 80.1 °F 83.8 °F 72.0 °F 76% 29.96 in 10.0 mi East 11.5 mph - N/A   Partly Cloudy
7:53 PM 79.0 °F - 72.0 °F 79% 29.96 in 10.0 mi ENE 9.2 mph - N/A   Clear
8:53 PM 78.1 °F - 72.0 °F 81% 29.98 in 10.0 mi NE 9.2 mph - N/A   Partly Cloudy
9:53 PM 78.1 °F - 72.0 °F 81% 29.99 in 10.0 mi ENE 8.1 mph - N/A   Scattered Clouds
11:53 PM 75.9 °F - 72.0 °F 87% 29.99 in 10.0 mi NE 8.1 mph - N/A   Clear